Location: Sarayc?k
(36.6500°N, 30.3667°E)
Time: 00:08:48
(UTC+00:00)

Daily predictions for brighter satellites

Satellite Brightness Start Highest point End
(mag) Time Altitude Azimuth Time Altitude Azimuth Time Altitude Azimuth
Cosmos 2151 2.9 00:08:21 69° W 00:08:21 69° W 00:12:33 10° N
IDEFIX/ARIANE 42P 3.6 00:04:11 10° NNE 00:09:03 39° E 00:11:29 25° SSE
AQUA 3.9 00:10:56 10° N 00:15:38 59° WNW 00:16:24 52° WSW
DELTA 2 R/B (1) 3.9 00:16:57 18° W 00:21:08 64° N 00:26:38 10° E
Cosmos 2292 Rocket 3.1 00:26:32 54° NNW 00:26:32 54° NNW 00:28:55 10° N
USA 281 4.2 00:22:19 10° SE 00:28:30 46° ENE 00:34:43 10° N
Cosmos 1553 Rocket 4.0 00:22:27 10° N 00:28:45 78° E 00:33:15 20° SSE
CBERS-1 4.1 00:23:40 10° NNE 00:28:49 73° ESE 00:31:04 34° S
IRS-1D 3.4 00:23:48 10° NNE 00:28:56 87° WNW 00:30:46 41° SSW
Meteor 2-14 Rocket 4.4 00:27:35 30° S 00:30:45 83° E 00:36:54 10° N
X-37B 3.1 00:30:01 10° NW 00:32:38 23° NNE 00:35:15 10° ENE
Delta 2 Rocket 3.7 00:33:23 43° SSE 00:33:23 43° SSE 00:37:02 10° E
MSX 4.3 00:33:39 10° NNE 00:39:20 57° E 00:43:17 20° S
Cosmos 2369 Rocket 4.1 00:37:30 10° WNW 00:38:58 13° W 00:38:58 13° W
Aureole 3 Rocket 4.4 00:37:35 10° NW 00:41:27 29° W 00:41:59 29° WSW
GPS 2-04 Rocket1 2.5 00:41:36 46° WSW 00:42:41 78° S 00:46:33 10° E
Cosmos 1782 2.8 00:40:12 10° N 00:44:12 83° E 00:46:08 30° S
Cosmos 1271 Rocket 3.4 00:42:55 10° N 00:46:34 50° E 00:49:33 15° SSE
CZ-4C R/B 3.6 00:44:34 19° SSE 00:46:52 54° ENE 00:50:14 10° N
Cosmos 1417 Rocket 4.5 00:42:49 10° N 00:49:11 86° W 00:54:46 14° S
ATLAS 5 CENTAUR R/B 3.5 00:48:04 13° WNW 00:49:46 16° NW 00:52:30 10° N
ADEOS Rocket 3.4 00:45:29 19° S 00:50:56 60° W 00:57:41 10° NNW
OAO 1 4.4 00:47:17 20° W 00:51:10 72° S 00:56:37 10° ESE
ERBS 3.1 00:51:55 32° WNW 00:52:33 36° NW 00:55:35 10° NNE
Helios 1B rocket 4.3 00:50:59 10° NNW 00:53:27 16° WNW 00:54:08 15° W
Cosmos 2298 Rocket 4.0 00:51:00 10° NNW 00:56:15 63° WSW 01:00:32 15° S
Cosmos 1328 Rocket 3.6 00:52:24 10° N 00:56:47 77° E 01:00:32 14° SSE
Cosmos 44 4.5 00:55:03 17° S 00:58:36 40° ESE 01:03:37 10° NE
SeaSat 1 2.4 00:53:46 10° NNE 00:58:43 86° WNW 01:01:33 26° SSW
SL-16 R/B 3.6 00:59:52 22° WSW 01:01:19 24° W 01:06:14 10° NW
Cosmos 1833 Rocket 3.4 00:58:38 15° S 01:03:09 49° ESE 01:08:34 10° NNE
Cosmos 2150 Rocket 4.2 01:02:44 10° NNW 01:07:48 52° WSW 01:12:18 13° S
Cosmos 2266 Rocket 3.9 01:04:30 18° SSW 01:09:11 76° W 01:15:16 10° N
Meteor 1-28 Rocket 4.0 01:10:53 28° SW 01:11:53 33° W 01:15:21 10° NNW
Centaur AC-125 3.9 01:13:01 12° SSE 01:13:01 12° SSE 01:14:07 10° SE
IRS-P3 4.1 01:07:27 10° N 01:12:47 77° WNW 01:16:50 18° SSW
CZ-4C R/B 2.0 01:11:22 24° SW 01:14:11 69° NW 01:19:41 10° NNE
Cosmos 1125 Rocket 3.6 01:10:48 10° NNW 01:15:55 54° WSW 01:21:03 10° S
BREEZE-M DEB (TANK) 2.9 01:15:11 21° SW 01:18:13 68° SSE 01:21:07 10° ENE
Tianhe-1 1.0 01:17:27 31° SW 01:18:47 70° SSE 01:21:56 10° ENE
Lacrosse 4 Rocket 2.5 01:16:26 10° NW 01:19:37 23° WSW 01:20:08 22° WSW
Cosmos 1151 Rocket 3.5 01:16:34 10° NNW 01:20:32 39° W 01:23:06 19° SSW
CZ-4B R/B 3.5 01:16:37 10° NNE 01:21:54 84° WNW 01:26:29 13° SSW
ARIANE 5 R/B 2.4 01:17:37 10° N 01:22:37 78° WNW 01:26:54 14° SSW
CENTAUR R/B 4.4 01:17:25 10° NNW 01:25:22 47° NE 01:33:53 10° ESE
Cosmos 2082 Rocket 3.5 01:20:49 10° S 01:25:53 36° ESE 01:30:58 10° NE
Cosmos 1408 Rocket 3.8 01:23:31 18° SSW 01:26:34 52° W 01:30:57 10° N
Cosmos 1515 Rocket 3.5 01:23:24 10° N 01:27:51 87° W 01:32:18 10° S
ADEOS II 3.9 01:30:30 10° NNW 01:33:44 17° WNW 01:36:49 10° W
Cosmos 1862 4.0 01:32:29 18° SW 01:35:02 36° W 01:38:49 10° N
Lacrosse 5 rocket 3.4 01:37:25 10° NNW 01:40:37 28° NE 01:43:56 10° ESE
FALCON 9 DEB 3.9 01:39:03 10° WNW 01:42:02 29° SW 01:45:01 10° SSE
ASTEX 1 4.3 01:38:22 13° SSW 01:42:03 31° W 01:46:25 10° NNW
IDEFIX/ARIANE 42P 4.0 01:44:20 10° NNW 01:48:22 23° WNW 01:52:17 10° WSW
COSMOS 2406 3.3 01:43:43 11° SSW 01:49:12 69° WNW 01:54:52 10° NNE
OAO 3 Rocket 3.7 01:51:44 11° SW 01:56:00 46° SSE 02:00:36 10° E
BREEZE-M DEB (TANK) 3.6 01:55:28 10° SSW 01:57:25 25° SE 01:59:27 10° ENE
PAYLOAD A 4.1 01:54:10 10° N 01:59:12 67° WNW 02:04:24 10° SSW
Spot 4 Rocket 4.2 01:55:46 10° N 02:00:47 56° WNW 02:05:48 10° SSW
PSLV R/B 4.0 01:59:14 10° NNE 02:03:35 68° E 02:07:56 10° S
CZ-2D R/B 4.4 02:00:22 10° N 02:04:04 32° WNW 02:07:41 10° SW
Cosmos 2315 Rocket 4.3 02:00:12 10° NNW 02:06:06 48° W 02:12:00 10° SSW
DELTA 2 R/B (1) 3.7 02:02:15 10° WNW 02:07:49 87° NNE 02:13:23 10° ESE
Cosmos 1656 3.9 02:03:15 10° NNW 02:08:46 52° WSW 02:14:13 10° S
SL-08 R/B 4.0 02:05:05 10° SSW 02:09:17 34° W 02:13:34 10° NNW
X-37B 0.5 02:06:22 10° WNW 02:09:32 84° SW 02:12:42 10° ESE
Cosmos 1805 Rocket 3.6 02:05:52 10° SSW 02:10:10 62° W 02:14:32 10° N
USA 281 4.0 02:07:27 10° SSW 02:13:04 30° WSW 02:18:43 10° NW
